| time (UTC) | temp F | wind direction | speed MPH | gust MPH | rain 1hr in | rain 24hr in | rain mn in | humidity % | barometer mb |
| 20260904090100 | 64 | 161 | 1.0 | 4.0 | 0.00 | 0.00 | 0.00 | 84 | 1013.0 |
| 20260904084601 | 64 | 161 | 1.0 | 2.0 | 0.00 | 0.00 | 0.00 | 84 | 1013.0 |
| 20260904083105 | 63 | 161 | 0.0 | 2.0 | 0.00 | 0.00 | 0.00 | 84 | 1013.1 |
| 20260904081600 | 64 | 161 | 1.0 | 4.0 | 0.00 | 0.00 | 0.00 | 84 | 1013.3 |
| 20260904080121 | 64 | 0 | 0.0 | 0.0 | 0.00 | 0.00 | 0.00 | 84 | 1013.4 |
| 20260904074556 | 64 | 161 | 0.0 | 2.0 | 0.00 | 0.00 | 0.00 | 84 | 1013.5 |
| 20260904073112 | 64 | 161 | 1.0 | 4.0 | 0.00 | 0.00 | 0.00 | 84 | 1013.4 |
| 20260904071603 | 64 | 207 | 0.0 | 3.0 | 0.00 | 0.00 | 0.00 | 84 | 1013.5 |
| 20260904064557 | 64 | 207 | 1.0 | 3.0 | 0.00 | 0.00 | 0.00 | 83 | 1013.4 |
| 20260904063116 | 65 | 208 | 0.0 | 2.0 | 0.00 | 0.00 | 0.00 | 83 | 1013.4 |
| 20260904061557 | 65 | 0 | 0.0 | 0.0 | 0.00 | 0.00 | 0.00 | 83 | 1013.3 |
| 20260904060056 | 65 | 0 | 0.0 | 0.0 | 0.00 | 0.00 | 0.00 | 83 | 1013.3 |
| 20260904054604 | 64 | 0 | 0.0 | 0.0 | 0.00 | 0.00 | 0.00 | 82 | 1013.3 |
| 20260904053138 | 65 | 0 | 0.0 | 0.0 | 0.00 | 0.00 | 0.00 | 82 | 1013.4 |
| 20260904051556 | 66 | 0 | 0.0 | 0.0 | 0.00 | 0.00 | 0.00 | 81 | 1013.5 |
| 20260904050104 | 66 | 0 | 0.0 | 1.0 | 0.00 | 0.00 | 0.00 | 81 | 1013.6 |
| 20260904044614 | 65 | 209 | 0.0 | 2.0 | 0.00 | 0.00 | 0.00 | 81 | 1013.6 |
| 20260904043104 | 66 | 209 | 0.0 | 3.0 | 0.00 | 0.00 | 0.00 | 81 | 1013.5 |
| 20260904041603 | 66 | 0 | 1.0 | 3.0 | 0.00 | 0.00 | 0.00 | 80 | 1013.5 |
| 20260904040106 | 66 | 214 | 0.0 | 4.0 | 0.00 | 0.00 | 0.00 | 80 | 1013.4 |
| 20260904034605 | 66 | 216 | 1.0 | 3.0 | 0.00 | 0.00 | 0.00 | 81 | 1013.1 |
| 20260904033105 | 66 | 219 | 2.0 | 5.0 | 0.00 | 0.00 | 0.00 | 80 | 1013.0 |
| 20260904031603 | 66 | 0 | 0.0 | 2.0 | 0.00 | 0.00 | 0.00 | 80 | 1012.8 |
| 20260904030103 | 66 | 0 | 0.0 | 3.0 | 0.00 | 0.00 | 0.00 | 79 | 1012.8 |
| 20260904024601 | 67 | 237 | 1.0 | 4.0 | 0.00 | 0.00 | 0.00 | 78 | 1012.8 |
| 20260904023055 | 67 | 243 | 1.0 | 4.0 | 0.00 | 0.00 | 0.00 | 78 | 1012.9 |
| 20260904021558 | 68 | 250 | 1.0 | 4.0 | 0.00 | 0.00 | 0.00 | 77 | 1012.8 |
| 20260904014606 | 69 | 265 | 2.0 | 5.0 | 0.00 | 0.00 | 0.00 | 75 | 1012.8 |
| 20260904013118 | 70 | 241 | 3.0 | 9.0 | 0.00 | 0.00 | 0.00 | 74 | 1012.9 |
| 20260904011626 | 71 | 240 | 4.0 | 9.0 | 0.00 | 0.00 | 0.00 | 72 | 1012.9 |
| 20260904010057 | 71 | 0 | 4.0 | 12.0 | 0.00 | 0.00 | 0.00 | 72 | 1013.0 |
| 20260904004600 | 72 | 250 | 5.0 | 12.0 | 0.00 | 0.00 | 0.00 | 71 | 1012.9 |
| 20260904003057 | 73 | 261 | 4.0 | 12.0 | 0.00 | 0.00 | 0.00 | 69 | 1013.0 |
| 20260904001554 | 73 | 292 | 6.0 | 12.0 | 0.00 | 0.00 | 0.00 | 70 | 1013.1 |
| 20260904000104 | 73 | 252 | 4.0 | 15.0 | 0.00 | 0.00 | 0.00 | 70 | 1013.1 |
| 20260903234557 | 73 | 253 | 5.0 | 13.0 | 0.00 | 0.00 | 0.00 | 68 | 1013.1 |
| 20260903233056 | 73 | 269 | 6.0 | 14.0 | 0.00 | 0.00 | 0.00 | 70 | 1013.2 |
| 20260903231554 | 74 | 257 | 6.0 | 13.0 | 0.00 | 0.00 | 0.00 | 71 | 1013.4 |
| 20260903230058 | 74 | 246 | 7.0 | 13.0 | 0.00 | 0.00 | 0.00 | 72 | 1013.3 |
| 20260903224601 | 75 | 360 | 6.0 | 13.0 | 0.00 | 0.00 | 0.00 | 71 | 1013.4 |
| 20260903223059 | 75 | 360 | 4.0 | 13.0 | 0.00 | 0.00 | 0.00 | 71 | 1013.5 |
| 20260903221559 | 75 | 238 | 6.0 | 12.0 | 0.00 | 0.00 | 0.00 | 71 | 1013.6 |
| 20260903220104 | 75 | 235 | 7.0 | 14.0 | 0.00 | 0.00 | 0.00 | 71 | 1013.7 |
| 20260903214610 | 75 | 268 | 8.0 | 13.0 | 0.00 | 0.00 | 0.00 | 71 | 1013.8 |
| 20260903213057 | 75 | 203 | 5.0 | 16.0 | 0.00 | 0.00 | 0.00 | 71 | 1013.8 |
| 20260903211604 | 75 | 229 | 7.0 | 16.0 | 0.00 | 0.00 | 0.00 | 70 | 1014.0 |
| 20260903210140 | 76 | 246 | 6.0 | 13.0 | 0.00 | 0.00 | 0.00 | 70 | 1014.0 |
| 20260903204606 | 76 | 360 | 5.0 | 13.0 | 0.00 | 0.00 | 0.00 | 69 | 1014.0 |
| 20260903203057 | 76 | 242 | 6.0 | 13.0 | 0.00 | 0.00 | 0.00 | 68 | 1014.2 |
| 20260903201558 | 76 | 257 | 5.0 | 12.0 | 0.00 | 0.00 | 0.00 | 69 | 1014.2 |
| 20260903200105 | 77 | 245 | 5.0 | 11.0 | 0.00 | 0.00 | 0.00 | 68 | 1014.2 |
| 20260903194559 | 76 | 227 | 4.0 | 13.0 | 0.00 | 0.00 | 0.00 | 69 | 1014.4 |
| 20260903193058 | 75 | 360 | 6.0 | 13.0 | 0.00 | 0.00 | 0.00 | 69 | 1014.4 |
| 20260903191602 | 75 | 266 | 5.0 | 12.0 | 0.00 | 0.00 | 0.00 | 70 | 1014.4 |
| 20260903190104 | 75 | 360 | 7.0 | 13.0 | 0.00 | 0.00 | 0.00 | 69 | 1014.7 |
| 20260903184603 | 75 | 229 | 6.0 | 13.0 | 0.00 | 0.00 | 0.00 | 69 | 1014.9 |
| 20260903183101 | 75 | 223 | 5.0 | 13.0 | 0.00 | 0.00 | 0.00 | 68 | 1015.2 |
| 20260903181554 | 75 | 360 | 7.0 | 12.0 | 0.00 | 0.00 | 0.00 | 69 | 1015.2 |
| 20260903180108 | 76 | 240 | 6.0 | 11.0 | 0.00 | 0.00 | 0.00 | 68 | 1015.2 |
| 20260903174558 | 76 | 226 | 4.0 | 10.0 | 0.00 | 0.00 | 0.00 | 67 | 1015.4 |
| 20260903173056 | 76 | 232 | 4.0 | 8.0 | 0.00 | 0.00 | 0.00 | 68 | 1015.2 |
| 20260903171614 | 79 | 0 | 2.0 | 7.0 | 0.00 | 0.00 | 0.00 | 63 | 1015.1 |
| 20260903170100 | 79 | 130 | 2.0 | 8.0 | 0.00 | 0.00 | 0.00 | 61 | 1015.2 |
| 20260903164604 | 78 | 148 | 4.0 | 8.0 | 0.00 | 0.00 | 0.00 | 63 | 1015.1 |
| 20260903163101 | 76 | 291 | 1.0 | 8.0 | 0.00 | 0.00 | 0.00 | 66 | 1015.2 |
| 20260903161600 | 77 | 109 | 5.0 | 8.0 | 0.00 | 0.00 | 0.00 | 65 | 1015.1 |
| 20260903160106 | 76 | 0 | 2.0 | 4.0 | 0.00 | 0.00 | 0.00 | 65 | 1015.4 |
| 20260903154606 | 74 | 82 | 2.0 | 5.0 | 0.00 | 0.00 | 0.00 | 67 | 1015.3 |
| 20260903153110 | 73 | 78 | 2.0 | 5.0 | 0.00 | 0.00 | 0.00 | 67 | 1015.5 |
| 20260903151611 | 72 | 59 | 2.0 | 6.0 | 0.00 | 0.00 | 0.00 | 68 | 1015.4 |
| 20260903150110 | 70 | 78 | 2.0 | 6.0 | 0.00 | 0.00 | 0.00 | 71 | 1015.5 |
| 20260903144601 | 68 | 55 | 2.0 | 4.0 | 0.00 | 0.00 | 0.00 | 75 | 1015.4 |
| 20260903143107 | 66 | 55 | 2.0 | 4.0 | 0.00 | 0.00 | 0.00 | 77 | 1015.2 |
| 20260903141557 | 66 | 55 | 1.0 | 4.0 | 0.00 | 0.00 | 0.00 | 79 | 1015.1 |
| 20260903140109 | 64 | 54 | 3.0 | 5.0 | 0.00 | 0.00 | 0.00 | 80 | 1014.9 |
| 20260903134601 | 63 | 51 | 2.0 | 4.0 | 0.00 | 0.00 | 0.00 | 83 | 1014.6 |
| 20260903133103 | 62 | 51 | 1.0 | 4.0 | 0.00 | 0.00 | 0.00 | 84 | 1014.5 |
| 20260903131607 | 63 | 51 | 1.0 | 3.0 | 0.00 | 0.00 | 0.00 | 84 | 1014.4 |
| 20260903130056 | 62 | 51 | 0.0 | 3.0 | 0.00 | 0.00 | 0.00 | 83 | 1014.5 |
| 20260903124600 | 62 | 51 | 0.0 | 3.0 | 0.00 | 0.00 | 0.00 | 83 | 1014.4 |
| 20260903123059 | 63 | 51 | 1.0 | 3.0 | 0.00 | 0.00 | 0.00 | 83 | 1014.4 |
| 20260903121555 | 63 | 51 | 1.0 | 4.0 | 0.00 | 0.00 | 0.00 | 83 | 1014.4 |
| 20260903114603 | 63 | 42 | 2.0 | 3.0 | 0.00 | 0.00 | 0.00 | 84 | 1014.5 |
| 20260903113058 | 62 | 42 | 3.0 | 4.0 | 0.00 | 0.00 | 0.00 | 84 | 1014.4 |
| 20260903111556 | 62 | 41 | 2.0 | 3.0 | 0.00 | 0.00 | 0.00 | 83 | 1014.5 |
| 20260903110100 | 63 | 44 | 3.0 | 4.0 | 0.00 | 0.00 | 0.00 | 83 | 1014.5 |
| 20260903104557 | 63 | 57 | 3.0 | 4.0 | 0.00 | 0.00 | 0.00 | 83 | 1014.7 |
| 20260903103059 | 63 | 63 | 3.0 | 4.0 | 0.00 | 0.00 | 0.00 | 83 | 1014.7 |
| 20260903101602 | 63 | 80 | 2.0 | 3.0 | 0.00 | 0.00 | 0.00 | 82 | 1014.9 |
| 20260903100056 | 64 | 84 | 2.0 | 3.0 | 0.00 | 0.00 | 0.00 | 82 | 1015.0 |
| 20260903094634 | 64 | 85 | 1.0 | 3.0 | 0.00 | 0.00 | 0.00 | 82 | 1015.2 |
| 20260903093054 | 64 | 86 | 1.0 | 4.0 | 0.00 | 0.00 | 0.00 | 83 | 1015.3 |
| 20260903091601 | 64 | 86 | 1.0 | 3.0 | 0.00 | 0.00 | 0.00 | 82 | 1015.4 |